Wetterdaten: aktuell Dienstag, 20.10.2020 15:40
Datum Zeit Temp. A. Temp. A. min Temp. A. max Feuchte A. Luftdruck Regen Wind Richtung Richtung Sonnenschein UV Solar Windben
20.10.2020 15:40 13,1 C 13,1 C 13,1 C 83 % 1010,3 hPa 0,0 l/m 11,3 km/h (2 Bft) S-SO 157 0 min 0,0 UV-I 53 W/m 20,9 km/h (4 Bft)
20.10.2020 15:35 13,1 C 13,1 C 13,1 C 83 % 1010,3 hPa 0,0 l/m 11,3 km/h (2 Bft) S-SO 157 0 min 0,0 UV-I 60 W/m 20,9 km/h (4 Bft)
20.10.2020 15:30 13,1 C 13,1 C 13,1 C 83 % 1010,2 hPa 0,0 l/m 9,7 km/h (2 Bft) S-SO 157 0 min 0,0 UV-I 72 W/m 20,9 km/h (4 Bft)
20.10.2020 15:25 13,1 C 13,1 C 13,1 C 83 % 1010,2 hPa 0,0 l/m 11,3 km/h (2 Bft) S-SO 157 0 min 0,5 UV-I 83 W/m 19,3 km/h (3 Bft)
20.10.2020 15:20 13,1 C 13,1 C 13,1 C 83 % 1010,2 hPa 0,0 l/m 6,4 km/h (2 Bft) S-SO 157 0 min 0,5 UV-I 79 W/m 19,3 km/h (3 Bft)
20.10.2020 15:15 13,1 C 13,1 C 13,1 C 82 % 1010,2 hPa 0,0 l/m 9,7 km/h (2 Bft) S-SO 157 0 min 0,0 UV-I 69 W/m 19,3 km/h (3 Bft)
20.10.2020 15:10 13,1 C 13,1 C 13,1 C 82 % 1010,1 hPa 0,0 l/m 8,0 km/h (2 Bft) S-SO 157 0 min 0,0 UV-I 69 W/m 17,7 km/h (3 Bft)
20.10.2020 15:05 13,1 C 13,1 C 13,1 C 82 % 1010,1 hPa 0,0 l/m 11,3 km/h (2 Bft) S-SO 157 0 min 0,0 UV-I 67 W/m 20,9 km/h (4 Bft)
20.10.2020 15:00 13,1 C 13,1 C 13,1 C 82 % 1010,2 hPa 0,0 l/m 11,3 km/h (2 Bft) S-SO 157 0 min 0,0 UV-I 65 W/m 19,3 km/h (3 Bft)
20.10.2020 14:55 13,1 C 12,9 C 13,1 C 81 % 1010,2 hPa 0,0 l/m 11,3 km/h (2 Bft) S-SO 157 0 min 0,0 UV-I 69 W/m 19,3 km/h (3 Bft)
20.10.2020 14:50 13,0 C 12,9 C 13,0 C 81 % 1010,3 hPa 0,0 l/m 12,9 km/h (3 Bft) S-SO 157 0 min 0,5 UV-I 72 W/m 20,9 km/h (4 Bft)
20.10.2020 14:45 12,9 C 12,8 C 12,9 C 82 % 1010,3 hPa 0,0 l/m 12,9 km/h (3 Bft) S-SO 157 0 min 0,0 UV-I 63 W/m 20,9 km/h (4 Bft)
20.10.2020 14:40 12,8 C 12,8 C 12,9 C 82 % 1010,4 hPa 0,0 l/m 11,3 km/h (2 Bft) S-SO 157 0 min 0,5 UV-I 74 W/m 25,7 km/h (4 Bft)
20.10.2020 14:35 12,8 C 12,7 C 12,8 C 82 % 1010,3 hPa 0,0 l/m 11,3 km/h (2 Bft) S-SO 157 0 min 0,6 UV-I 86 W/m 24,1 km/h (4 Bft)
20.10.2020 14:30 12,7 C 12,7 C 12,7 C 82 % 1010,3 hPa 0,0 l/m 11,3 km/h (2 Bft) S-SO 157 0 min 0,6 UV-I 91 W/m 20,9 km/h (4 Bft)
20.10.2020 14:25 12,7 C 12,7 C 12,7 C 82 % 1010,2 hPa 0,0 l/m 12,9 km/h (3 Bft) S-SO 157 0 min 0,6 UV-I 83 W/m 25,7 km/h (4 Bft)
20.10.2020 14:20 12,7 C 12,7 C 12,8 C 82 % 1010,4 hPa 0,0 l/m 12,9 km/h (3 Bft) S-SO 157 0 min 0,5 UV-I 81 W/m 22,5 km/h (4 Bft)
20.10.2020 14:15 12,8 C 12,8 C 12,8 C 81 % 1010,5 hPa 0,0 l/m 11,3 km/h (2 Bft) S-SO 157 0 min 0,5 UV-I 86 W/m 25,7 km/h (4 Bft)
20.10.2020 14:10 12,8 C 12,8 C 12,8 C 81 % 1010,5 hPa 0,0 l/m 14,5 km/h (3 Bft) S-SO 157 0 min 0,5 UV-I 84 W/m 27,4 km/h (5 Bft)
20.10.2020 14:05 12,8 C 12,8 C 12,8 C 80 % 1010,6 hPa 0,0 l/m 12,9 km/h (3 Bft) S 180 0 min 0,5 UV-I 90 W/m 25,7 km/h (4 Bft)
20.10.2020 14:00 12,8 C 12,7 C 12,8 C 80 % 1010,6 hPa 0,0 l/m 14,5 km/h (3 Bft) S-SO 157 0 min 0,5 UV-I 86 W/m 24,1 km/h (4 Bft)
20.10.2020 13:55 12,7 C 12,7 C 12,8 C 79 % 1010,6 hPa 0,0 l/m 14,5 km/h (3 Bft) S-SO 157 0 min 0,5 UV-I 67 W/m 30,6 km/h (5 Bft)
20.10.2020 13:50 12,7 C 12,7 C 12,7 C 79 % 1010,6 hPa 0,0 l/m 14,5 km/h (3 Bft) S-SO 157 0 min 0,0 UV-I 69 W/m 27,4 km/h (5 Bft)
20.10.2020 13:45 12,7 C 12,6 C 12,7 C 79 % 1010,6 hPa 0,0 l/m 14,5 km/h (3 Bft) S-SO 157 0 min 0,5 UV-I 79 W/m 25,7 km/h (4 Bft)
20.10.2020 13:40 12,6 C 12,6 C 12,7 C 80 % 1010,6 hPa 0,0 l/m 14,5 km/h (3 Bft) S-SO 157 0 min 0,0 UV-I 67 W/m 30,6 km/h (5 Bft)
20.10.2020 13:35 12,6 C 12,5 C 12,6 C 80 % 1010,6 hPa 0,0 l/m 12,9 km/h (3 Bft) S 180 0 min 0,6 UV-I 90 W/m 29,0 km/h (5 Bft)
20.10.2020 13:30 12,4 C 12,4 C 12,4 C 80 % 1010,6 hPa 0,0 l/m 12,9 km/h (3 Bft) S 180 0 min 0,7 UV-I 109 W/m 25,7 km/h (4 Bft)
20.10.2020 13:25 12,4 C 12,3 C 12,4 C 80 % 1010,6 hPa 0,0 l/m 12,9 km/h (3 Bft) S-SO 157 0 min 0,6 UV-I 97 W/m 22,5 km/h (4 Bft)
20.10.2020 13:20 12,3 C 12,2 C 12,3 C 80 % 1010,7 hPa 0,0 l/m 14,5 km/h (3 Bft) S-SO 157 0 min 0,5 UV-I 79 W/m 29,0 km/h (5 Bft)
20.10.2020 13:15 12,2 C 12,2 C 12,3 C 81 % 1010,7 hPa 0,0 l/m 12,9 km/h (3 Bft) S-SO 157 0 min 0,5 UV-I 69 W/m 29,0 km/h (5 Bft)
20.10.2020 13:10 12,2 C 12,2 C 12,2 C 81 % 1010,8 hPa 0,0 l/m 12,9 km/h (3 Bft) S-SO 157 0 min 0,6 UV-I 95 W/m 24,1 km/h (4 Bft)
20.10.2020 13:05 12,2 C 12,1 C 12,2 C 81 % 1010,9 hPa 0,0 l/m 14,5 km/h (3 Bft) S-SO 157 0 min 0,6 UV-I 98 W/m 25,7 km/h (4 Bft)
20.10.2020 13:00 12,2 C 12,1 C 12,2 C 81 % 1011,2 hPa 0,0 l/m 14,5 km/h (3 Bft) S-SO 157 0 min 0,6 UV-I 95 W/m 22,5 km/h (4 Bft)
20.10.2020 12:55 12,1 C 12,0 C 12,1 C 80 % 1011,3 hPa 0,0 l/m 12,9 km/h (3 Bft) S-SO 157 0 min 0,7 UV-I 104 W/m 32,2 km/h (5 Bft)
20.10.2020 12:50 12,0 C 11,9 C 12,1 C 80 % 1011,2 hPa 0,0 l/m 14,5 km/h (3 Bft) S-SO 157 0 min 0,6 UV-I 97 W/m 25,7 km/h (4 Bft)
20.10.2020 12:45 11,9 C 11,9 C 12,0 C 80 % 1011,2 hPa 0,0 l/m 14,5 km/h (3 Bft) S-SO 157 0 min 0,0 UV-I 58 W/m 24,1 km/h (4 Bft)
20.10.2020 12:40 11,9 C 11,9 C 11,9 C 80 % 1011,4 hPa 0,0 l/m 14,5 km/h (3 Bft) S 180 0 min 0,0 UV-I 47 W/m 22,5 km/h (4 Bft)
20.10.2020 12:35 11,9 C 11,9 C 11,9 C 80 % 1011,2 hPa 0,0 l/m 14,5 km/h (3 Bft) S 180 0 min 0,0 UV-I 60 W/m 22,5 km/h (4 Bft)
20.10.2020 12:30 11,9 C 11,8 C 11,9 C 80 % 1011,0 hPa 0,0 l/m 12,9 km/h (3 Bft) S-SO 157 0 min 0,0 UV-I 62 W/m 27,4 km/h (5 Bft)
20.10.2020 12:25 11,8 C 11,7 C 11,8 C 80 % 1011,0 hPa 0,0 l/m 14,5 km/h (3 Bft) S-SO 157 0 min 0,0 UV-I 60 W/m 27,4 km/h (5 Bft)
20.10.2020 12:20 11,7 C 11,7 C 11,7 C 80 % 1011,0 hPa 0,0 l/m 11,3 km/h (2 Bft) S-SO 157 0 min 0,0 UV-I 54 W/m 22,5 km/h (4 Bft)
20.10.2020 12:15 11,7 C 11,6 C 11,7 C 80 % 1010,9 hPa 0,0 l/m 12,9 km/h (3 Bft) S-SO 157 0 min 0,0 UV-I 49 W/m 29,0 km/h (5 Bft)
20.10.2020 12:10 11,6 C 11,5 C 11,6 C 81 % 1010,9 hPa 0,0 l/m 11,3 km/h (2 Bft) S-SO 157 0 min 0,0 UV-I 60 W/m 30,6 km/h (5 Bft)
20.10.2020 12:05 11,5 C 11,4 C 11,5 C 81 % 1011,2 hPa 0,0 l/m 12,9 km/h (3 Bft) S-SO 157 0 min 0,0 UV-I 62 W/m 25,7 km/h (4 Bft)
20.10.2020 12:00 11,4 C 11,4 C 11,4 C 81 % 1011,2 hPa 0,0 l/m 11,3 km/h (2 Bft) S-SO 157 0 min 0,0 UV-I 54 W/m 19,3 km/h (3 Bft)
20.10.2020 11:55 11,4 C 11,4 C 11,4 C 81 % 1011,4 hPa 0,0 l/m 9,7 km/h (2 Bft) S-SO 157 0 min 0,0 UV-I 49 W/m 14,5 km/h (3 Bft)
20.10.2020 11:50 11,4 C 11,4 C 11,4 C 81 % 1011,2 hPa 0,0 l/m 12,9 km/h (3 Bft) S-SO 157 0 min 0,0 UV-I 44 W/m 19,3 km/h (3 Bft)
20.10.2020 11:45 11,4 C 11,4 C 11,4 C 81 % 1011,1 hPa 0,0 l/m 9,7 km/h (2 Bft) S-SO 157 0 min 0,0 UV-I 63 W/m 27,4 km/h (5 Bft)
20.10.2020 11:40 11,4 C 11,4 C 11,4 C 80 % 1011,2 hPa 0,0 l/m 11,3 km/h (2 Bft) S-SO 157 0 min 0,5 UV-I 77 W/m 20,9 km/h (4 Bft)
20.10.2020 11:35 11,4 C 11,3 C 11,4 C 80 % 1011,0 hPa 0,0 l/m 11,3 km/h (2 Bft) S-SO 157 0 min 0,5 UV-I 86 W/m 20,9 km/h (4 Bft)
20.10.2020 11:30 11,3 C 11,3 C 11,4 C 80 % 1010,9 hPa 0,0 l/m 11,3 km/h (2 Bft) S-SO 157 0 min 0,5 UV-I 97 W/m 19,3 km/h (3 Bft)
20.10.2020 11:25 11,4 C 11,3 C 11,4 C 80 % 1011,0 hPa 0,0 l/m 11,3 km/h (2 Bft) S-SO 157 0 min 0,5 UV-I 88 W/m 24,1 km/h (4 Bft)
20.10.2020 11:20 11,4 C 11,4 C 11,6 C 79 % 1011,1 hPa 0,0 l/m 9,7 km/h (2 Bft) S-SO 157 0 min 0,0 UV-I 77 W/m 17,7 km/h (3 Bft)
20.10.2020 11:15 11,6 C 11,5 C 11,6 C 78 % 1011,2 hPa 0,0 l/m 11,3 km/h (2 Bft) S-SO 157 0 min 0,0 UV-I 46 W/m 20,9 km/h (4 Bft)
20.10.2020 11:10 11,6 C 11,6 C 11,7 C 78 % 1011,2 hPa 0,0 l/m 9,7 km/h (2 Bft) S-SO 157 0 min 0,0 UV-I 40 W/m 19,3 km/h (3 Bft)
20.10.2020 11:05 11,7 C 11,6 C 11,7 C 77 % 1011,1 hPa 0,0 l/m 9,7 km/h (2 Bft) S-SO 157 0 min 0,0 UV-I 42 W/m 19,3 km/h (3 Bft)
20.10.2020 11:00 11,7 C 11,6 C 11,7 C 76 % 1010,8 hPa 0,0 l/m 9,7 km/h (2 Bft) S-SO 157 0 min 0,0 UV-I 62 W/m 19,3 km/h (3 Bft)
20.10.2020 10:55 11,7 C 11,6 C 11,7 C 76 % 1010,8 hPa 0,0 l/m 11,3 km/h (2 Bft) S-SO 157 0 min 0,0 UV-I 72 W/m 25,7 km/h (4 Bft)
20.10.2020 10:50 11,6 C 11,6 C 11,6 C 76 % 1010,9 hPa 0,0 l/m 12,9 km/h (3 Bft) S-SO 157 0 min 0,0 UV-I 79 W/m 25,7 km/h (4 Bft)
20.10.2020 10:45 11,6 C 11,5 C 11,6 C 75 % 1010,7 hPa 0,0 l/m 16,1 km/h (3 Bft) S-SO 157 0 min 0,0 UV-I 90 W/m 32,2 km/h (5 Bft)
20.10.2020 10:40 11,6 C 11,5 C 11,6 C 76 % 1010,8 hPa 0,0 l/m 14,5 km/h (3 Bft) S-SO 157 0 min 0,0 UV-I 77 W/m 24,1 km/h (4 Bft)
20.10.2020 10:35 11,5 C 11,4 C 11,5 C 75 % 1011,0 hPa 0,0 l/m 14,5 km/h (3 Bft) S-SO 157 0 min 0,5 UV-I 97 W/m 32,2 km/h (5 Bft)
20.10.2020 10:30 11,5 C 11,4 C 11,5 C 75 % 1011,0 hPa 0,0 l/m 14,5 km/h (3 Bft) S-SO 157 0 min 0,5 UV-I 111 W/m 30,6 km/h (5 Bft)
20.10.2020 10:25 11,4 C 11,4 C 11,4 C 76 % 1010,9 hPa 0,0 l/m 14,5 km/h (3 Bft) S-SO 157 0 min 0,6 UV-I 149 W/m 30,6 km/h (5 Bft)
20.10.2020 10:20 11,4 C 11,3 C 11,4 C 75 % 1011,1 hPa 0,0 l/m 16,1 km/h (3 Bft) S-SO 157 5 min 0,7 UV-I 174 W/m 30,6 km/h (5 Bft)
20.10.2020 10:15 11,2 C 11,1 C 11,3 C 76 % 1011,1 hPa 0,0 l/m 14,5 km/h (3 Bft) S-SO 157 5 min 0,7 UV-I 204 W/m 30,6 km/h (5 Bft)
20.10.2020 10:10 11,1 C 10,9 C 11,1 C 76 % 1011,2 hPa 0,0 l/m 12,9 km/h (3 Bft) S 180 5 min 0,6 UV-I 165 W/m 24,1 km/h (4 Bft)
20.10.2020 10:05 10,9 C 10,8 C 10,9 C 77 % 1011,2 hPa 0,0 l/m 16,1 km/h (3 Bft) S-SO 157 5 min 0,6 UV-I 153 W/m 25,7 km/h (4 Bft)
20.10.2020 10:00 10,8 C 10,7 C 10,8 C 77 % 1011,1 hPa 0,0 l/m 11,3 km/h (2 Bft) S-SO 157 0 min 0,5 UV-I 93 W/m 24,1 km/h (4 Bft)
20.10.2020 09:55 10,7 C 10,6 C 10,7 C 77 % 1011,0 hPa 0,0 l/m 14,5 km/h (3 Bft) S-SO 157 0 min 0,0 UV-I 70 W/m 27,4 km/h (5 Bft)
20.10.2020 09:50 10,6 C 10,5 C 10,6 C 77 % 1010,9 hPa 0,0 l/m 12,9 km/h (3 Bft) S 180 0 min 0,0 UV-I 69 W/m 22,5 km/h (4 Bft)
20.10.2020 09:45 10,5 C 10,4 C 10,5 C 77 % 1010,9 hPa 0,0 l/m 11,3 km/h (2 Bft) S-SO 157 0 min 0,0 UV-I 67 W/m 24,1 km/h (4 Bft)
20.10.2020 09:40 10,4 C 10,3 C 10,4 C 77 % 1010,9 hPa 0,0 l/m 12,9 km/h (3 Bft) S-SO 157 0 min 0,0 UV-I 63 W/m 24,1 km/h (4 Bft)
20.10.2020 09:35 10,3 C 10,2 C 10,3 C 77 % 1011,0 hPa 0,0 l/m 12,9 km/h (3 Bft) S-SO 157 0 min 0,0 UV-I 54 W/m 27,4 km/h (5 Bft)
20.10.2020 09:30 10,3 C 10,2 C 10,3 C 77 % 1011,0 hPa 0,0 l/m 11,3 km/h (2 Bft) S 180 0 min 0,0 UV-I 44 W/m 22,5 km/h (4 Bft)
20.10.2020 09:25 10,2 C 10,2 C 10,2 C 77 % 1011,1 hPa 0,0 l/m 9,7 km/h (2 Bft) S-SO 157 0 min 0,0 UV-I 32 W/m 19,3 km/h (3 Bft)
20.10.2020 09:20 10,2 C 10,2 C 10,2 C 77 % 1010,7 hPa 0,0 l/m 11,3 km/h (2 Bft) S-SO 157 0 min 0,0 UV-I 16 W/m 20,9 km/h (4 Bft)
20.10.2020 09:15 10,2 C 10,2 C 10,2 C 77 % 1010,9 hPa 0,0 l/m 12,9 km/h (3 Bft) S-SO 157 0 min 0,0 UV-I 18 W/m 22,5 km/h (4 Bft)
20.10.2020 09:10 10,2 C 10,2 C 10,2 C 77 % 1010,7 hPa 0,0 l/m 12,9 km/h (3 Bft) S-SO 157 0 min 0,0 UV-I 21 W/m 27,4 km/h (5 Bft)
20.10.2020 09:05 10,2 C 10,1 C 10,2 C 76 % 1010,5 hPa 0,0 l/m 14,5 km/h (3 Bft) S 180 0 min 0,0 UV-I 23 W/m 27,4 km/h (5 Bft)
20.10.2020 09:00 10,1 C 10,1 C 10,1 C 76 % 1010,5 hPa 0,0 l/m 16,1 km/h (3 Bft) S-SO 157 0 min 0,0 UV-I 23 W/m 32,2 km/h (5 Bft)
20.10.2020 08:55 10,1 C 10,0 C 10,1 C 77 % 1010,4 hPa 0,0 l/m 12,9 km/h (3 Bft) S-SO 157 0 min 0,0 UV-I 16 W/m 29,0 km/h (5 Bft)
20.10.2020 08:50 10,1 C 10,0 C 10,1 C 76 % 1010,4 hPa 0,0 l/m 11,3 km/h (2 Bft) S-SO 157 0 min 0,0 UV-I 9 W/m 25,7 km/h (4 Bft)
20.10.2020 08:45 10,0 C 9,9 C 10,0 C 76 % 1010,5 hPa 0,0 l/m 16,1 km/h (3 Bft) S-SO 157 0 min 0,0 UV-I 7 W/m 33,8 km/h (5 Bft)
20.10.2020 08:40 9,9 C 9,8 C 9,9 C 77 % 1010,3 hPa 0,0 l/m 14,5 km/h (3 Bft) S-SO 157 0 min 0,0 UV-I 7 W/m 33,8 km/h (5 Bft)
20.10.2020 08:35 9,8 C 9,8 C 9,9 C 76 % 1010,2 hPa 0,0 l/m 12,9 km/h (3 Bft) S-SO 157 0 min 0,0 UV-I 5 W/m 32,2 km/h (5 Bft)
20.10.2020 08:30 9,8 C 9,8 C 9,9 C 76 % 1010,1 hPa 0,0 l/m 9,7 km/h (2 Bft) S-SO 157 0 min 0,0 UV-I 0 W/m 24,1 km/h (4 Bft)
20.10.2020 08:25 9,9 C 9,9 C 9,9 C 76 % 1010,4 hPa 0,0 l/m 11,3 km/h (2 Bft) S-SO 157 0 min 0,0 UV-I 0 W/m 20,9 km/h (4 Bft)
20.10.2020 08:20 9,9 C 9,9 C 9,9 C 76 % 1010,6 hPa 0,0 l/m 12,9 km/h (3 Bft) S-SO 157 0 min 0,0 UV-I 0 W/m 29,0 km/h (5 Bft)
20.10.2020 08:15 9,9 C 9,9 C 9,9 C 76 % 1010,7 hPa 0,0 l/m 11,3 km/h (2 Bft) S-SO 157 0 min 0,0 UV-I 0 W/m 22,5 km/h (4 Bft)
20.10.2020 08:10 9,9 C 9,9 C 9,9 C 75 % 1011,2 hPa 0,0 l/m 12,9 km/h (3 Bft) S-SO 157 0 min 0,0 UV-I 0 W/m 24,1 km/h (4 Bft)
20.10.2020 08:05 9,9 C 9,9 C 9,9 C 75 % 1010,4 hPa 0,0 l/m 12,9 km/h (3 Bft) S-SO 157 0 min 0,0 UV-I 0 W/m 27,4 km/h (5 Bft)
20.10.2020 08:00 9,9 C 9,9 C 9,9 C 75 % 1010,5 hPa 0,0 l/m 12,9 km/h (3 Bft) S-SO 157 0 min 0,0 UV-I 0 W/m 32,2 km/h (5 Bft)
20.10.2020 07:55 9,9 C 9,9 C 9,9 C 75 % 1011,0 hPa 0,0 l/m 12,9 km/h (3 Bft) S 180 0 min 0,0 UV-I 0 W/m 24,1 km/h (4 Bft)
20.10.2020 07:50 9,9 C 9,9 C 10,0 C 75 % 1011,0 hPa 0,0 l/m 12,9 km/h (3 Bft) S-SO 157 0 min 0,0 UV-I 0 W/m 29,0 km/h (5 Bft)
20.10.2020 07:45 9,9 C 9,8 C 9,9 C 75 % 1011,0 hPa 0,0 l/m 12,9 km/h (3 Bft) S-SO 157 0 min 0,0 UV-I 0 W/m 25,7 km/h (4 Bft)
20.10.2020 07:40 9,8 C 9,8 C 9,9 C 75 % 1010,8 hPa 0,0 l/m 12,9 km/h (3 Bft) S-SO 157 0 min 0,0 UV-I 0 W/m 19,3 km/h (3 Bft)
20.10.2020 07:35 9,8 C 9,8 C 9,9 C 75 % 1010,7 hPa 0,0 l/m 9,7 km/h (2 Bft) S-SO 157 0 min 0,0 UV-I 0 W/m 19,3 km/h (3 Bft)
20.10.2020 07:30 9,8 C 9,8 C 9,9 C 75 % 1010,8 hPa 0,0 l/m 11,3 km/h (2 Bft) S-SO 157 0 min 0,0 UV-I 0 W/m 24,1 km/h (4 Bft)
20.10.2020 07:25 9,8 C 9,8 C 9,8 C 75 % 1010,8 hPa 0,0 l/m 12,9 km/h (3 Bft) S-SO 157 0 min 0,0 UV-I 0 W/m 24,1 km/h (4 Bft)
20.10.2020 07:20 9,8 C 9,7 C 9,8 C 75 % 1011,0 hPa 0,0 l/m 12,9 km/h (3 Bft) S-SO 157 0 min 0,0 UV-I 0 W/m 27,4 km/h (5 Bft)
20.10.2020 07:15 9,8 C 9,7 C 9,8 C 75 % 1010,9 hPa 0,0 l/m 11,3 km/h (2 Bft) S-SO 157 0 min 0,0 UV-I 0 W/m 24,1 km/h (4 Bft)
20.10.2020 07:10 9,7 C 9,7 C 9,7 C 75 % 1010,9 hPa 0,0 l/m 12,9 km/h (3 Bft) S-SO 157 0 min 0,0 UV-I 0 W/m 24,1 km/h (4 Bft)
20.10.2020 07:05 9,7 C 9,7 C 9,7 C 75 % 1011,0 hPa 0,0 l/m 11,3 km/h (2 Bft) S-SO 157 0 min 0,0 UV-I 0 W/m 20,9 km/h (4 Bft)
20.10.2020 07:00 9,7 C 9,7 C 9,8 C 75 % 1010,9 hPa 0,0 l/m 11,3 km/h (2 Bft) S-SO 157 0 min 0,0 UV-I 0 W/m 27,4 km/h (5 Bft)
20.10.2020 06:55 9,7 C 9,7 C 9,8 C 74 % 1011,0 hPa 0,0 l/m 11,3 km/h (2 Bft) S-SO 157 0 min 0,0 UV-I 0 W/m 24,1 km/h (4 Bft)
20.10.2020 06:50 9,7 C 9,7 C 9,8 C 74 % 1011,0 hPa 0,0 l/m 11,3 km/h (2 Bft) S-SO 157 0 min 0,0 UV-I 0 W/m 24,1 km/h (4 Bft)
20.10.2020 06:45 9,7 C 9,7 C 9,7 C 74 % 1010,9 hPa 0,0 l/m 14,5 km/h (3 Bft) S-SO 157 0 min 0,0 UV-I 0 W/m 30,6 km/h (5 Bft)
20.10.2020 06:40 9,7 C 9,6 C 9,7 C 74 % 1010,9 hPa 0,0 l/m 12,9 km/h (3 Bft) S-SO 157 0 min 0,0 UV-I 0 W/m 27,4 km/h (5 Bft)
20.10.2020 06:35 9,6 C 9,6 C 9,6 C 74 % 1010,9 hPa 0,0 l/m 11,3 km/h (2 Bft) S-SO 157 0 min 0,0 UV-I 0 W/m 25,7 km/h (4 Bft)
20.10.2020 06:30 9,6 C 9,6 C 9,6 C 74 % 1010,6 hPa 0,0 l/m 9,7 km/h (2 Bft) S-SO 157 0 min 0,0 UV-I 0 W/m 19,3 km/h (3 Bft)
20.10.2020 06:25 9,6 C 9,6 C 9,6 C 74 % 1010,8 hPa 0,0 l/m 8,0 km/h (2 Bft) S-SO 157 0 min 0,0 UV-I 0 W/m 19,3 km/h (3 Bft)
20.10.2020 06:20 9,6 C 9,6 C 9,6 C 74 % 1010,8 hPa 0,0 l/m 11,3 km/h (2 Bft) S-SO 157 0 min 0,0 UV-I 0 W/m 35,4 km/h (5 Bft)
20.10.2020 06:15 9,6 C 9,6 C 9,6 C 74 % 1010,8 hPa 0,0 l/m 8,0 km/h (2 Bft) SO 135 0 min 0,0 UV-I 0 W/m 19,3 km/h (3 Bft)
20.10.2020 06:10 9,6 C 9,6 C 9,6 C 74 % 1011,2 hPa 0,0 l/m 8,0 km/h (2 Bft) S-SO 157 0 min 0,0 UV-I 0 W/m 19,3 km/h (3 Bft)
20.10.2020 06:05 9,6 C 9,6 C 9,6 C 74 % 1011,4 hPa 0,0 l/m 11,3 km/h (2 Bft) S-SO 157 0 min 0,0 UV-I 0 W/m 32,2 km/h (5 Bft)
20.10.2020 06:00 9,6 C 9,5 C 9,6 C 74 % 1011,6 hPa 0,0 l/m 9,7 km/h (2 Bft) S-SO 157 0 min 0,0 UV-I 0 W/m 35,4 km/h (5 Bft)
20.10.2020 05:55 9,6 C 9,5 C 9,6 C 74 % 1011,8 hPa 0,0 l/m 11,3 km/h (2 Bft) S-SO 157 0 min 0,0 UV-I 0 W/m 19,3 km/h (3 Bft)
20.10.2020 05:50 9,6 C 9,5 C 9,6 C 74 % 1011,9 hPa 0,0 l/m 9,7 km/h (2 Bft) S-SO 157 0 min 0,0 UV-I 0 W/m 17,7 km/h (3 Bft)
20.10.2020 05:45 9,5 C 9,5 C 9,6 C 74 % 1011,8 hPa 0,0 l/m 11,3 km/h (2 Bft) S-SO 157 0 min 0,0 UV-I 0 W/m 25,7 km/h (4 Bft)
20.10.2020 05:40 9,5 C 9,5 C 9,6 C 74 % 1011,9 hPa 0,0 l/m 9,7 km/h (2 Bft) S-SO 157 0 min 0,0 UV-I 0 W/m 24,1 km/h (4 Bft)
20.10.2020 05:35 9,5 C 9,4 C 9,5 C 73 % 1011,9 hPa 0,0 l/m 9,7 km/h (2 Bft) S-SO 157 0 min 0,0 UV-I 0 W/m 20,9 km/h (4 Bft)
20.10.2020 05:30 9,4 C 9,4 C 9,5 C 73 % 1012,1 hPa 0,0 l/m 12,9 km/h (3 Bft) S-SO 157 0 min 0,0 UV-I 0 W/m 24,1 km/h (4 Bft)
20.10.2020 05:25 9,4 C 9,4 C 9,5 C 73 % 1012,1 hPa 0,0 l/m 11,3 km/h (2 Bft) S-SO 157 0 min 0,0 UV-I 0 W/m 20,9 km/h (4 Bft)
20.10.2020 05:20 9,5 C 9,5 C 9,6 C 73 % 1012,1 hPa 0,0 l/m 9,7 km/h (2 Bft) S-SO 157 0 min 0,0 UV-I 0 W/m 24,1 km/h (4 Bft)
20.10.2020 05:15 9,5 C 9,5 C 9,6 C 73 % 1012,2 hPa 0,0 l/m 11,3 km/h (2 Bft) S-SO 157 0 min 0,0 UV-I 0 W/m 24,1 km/h (4 Bft)
20.10.2020 05:10 9,6 C 9,4 C 9,6 C 73 % 1012,3 hPa 0,0 l/m 14,5 km/h (3 Bft) S-SO 157 0 min 0,0 UV-I 0 W/m 25,7 km/h (4 Bft)
20.10.2020 05:05 9,4 C 9,4 C 9,5 C 73 % 1012,3 hPa 0,0 l/m 12,9 km/h (3 Bft) S-SO 157 0 min 0,0 UV-I 0 W/m 25,7 km/h (4 Bft)
20.10.2020 05:00 9,4 C 9,4 C 9,5 C 73 % 1012,2 hPa 0,0 l/m 11,3 km/h (2 Bft) S-SO 157 0 min 0,0 UV-I 0 W/m 20,9 km/h (4 Bft)
20.10.2020 04:55 9,5 C 9,5 C 9,6 C 73 % 1012,2 hPa 0,0 l/m 11,3 km/h (2 Bft) S-SO 157 0 min 0,0 UV-I 0 W/m 22,5 km/h (4 Bft)
20.10.2020 04:50 9,6 C 9,6 C 9,6 C 73 % 1012,2 hPa 0,0 l/m 9,7 km/h (2 Bft) S-SO 157 0 min 0,0 UV-I 0 W/m 19,3 km/h (3 Bft)
20.10.2020 04:45 9,6 C 9,6 C 9,6 C 72 % 1012,3 hPa 0,0 l/m 12,9 km/h (3 Bft) S-SO 157 0 min 0,0 UV-I 0 W/m 24,1 km/h (4 Bft)
20.10.2020 04:40 9,6 C 9,5 C 9,6 C 73 % 1012,2 hPa 0,0 l/m 12,9 km/h (3 Bft) S-SO 157 0 min 0,0 UV-I 0 W/m 27,4 km/h (5 Bft)
20.10.2020 04:35 9,5 C 9,4 C 9,6 C 73 % 1012,2 hPa 0,0 l/m 11,3 km/h (2 Bft) S-SO 157 0 min 0,0 UV-I 0 W/m 19,3 km/h (3 Bft)
20.10.2020 04:30 9,4 C 9,4 C 9,4 C 73 % 1012,3 hPa 0,0 l/m 9,7 km/h (2 Bft) S-SO 157 0 min 0,0 UV-I 0 W/m 20,9 km/h (4 Bft)
20.10.2020 04:25 9,4 C 9,4 C 9,4 C 73 % 1012,5 hPa 0,0 l/m 9,7 km/h (2 Bft) S-SO 157 0 min 0,0 UV-I 0 W/m 19,3 km/h (3 Bft)
20.10.2020 04:20 9,4 C 9,4 C 9,4 C 73 % 1012,5 hPa 0,0 l/m 9,7 km/h (2 Bft) S-SO 157 0 min 0,0 UV-I 0 W/m 20,9 km/h (4 Bft)
20.10.2020 04:15 9,4 C 9,4 C 9,4 C 73 % 1012,7 hPa 0,0 l/m 11,3 km/h (2 Bft) S-SO 157 0 min 0,0 UV-I 0 W/m 25,7 km/h (4 Bft)
20.10.2020 04:10 9,4 C 9,3 C 9,4 C 73 % 1012,6 hPa 0,0 l/m 9,7 km/h (2 Bft) S-SO 157 0 min 0,0 UV-I 0 W/m 19,3 km/h (3 Bft)
20.10.2020 04:05 9,4 C 9,3 C 9,4 C 73 % 1012,8 hPa 0,0 l/m 11,3 km/h (2 Bft) S-SO 157 0 min 0,0 UV-I 0 W/m 27,4 km/h (5 Bft)
20.10.2020 04:00 9,3 C 9,2 C 9,3 C 73 % 1012,6 hPa 0,0 l/m 9,7 km/h (2 Bft) S 180 0 min 0,0 UV-I 0 W/m 30,6 km/h (5 Bft)
20.10.2020 03:55 9,2 C 9,2 C 9,2 C 73 % 1012,8 hPa 0,0 l/m 9,7 km/h (2 Bft) SO 135 0 min 0,0 UV-I 0 W/m 24,1 km/h (4 Bft)
20.10.2020 03:50 9,2 C 9,2 C 9,2 C 73 % 1013,0 hPa 0,0 l/m 8,0 km/h (2 Bft) S-SO 157 0 min 0,0 UV-I 0 W/m 19,3 km/h (3 Bft)
20.10.2020 03:45 9,2 C 9,2 C 9,3 C 73 % 1013,1 hPa 0,0 l/m 8,0 km/h (2 Bft) S-SO 157 0 min 0,0 UV-I 0 W/m 20,9 km/h (4 Bft)
20.10.2020 03:40 9,3 C 9,2 C 9,3 C 73 % 1013,3 hPa 0,0 l/m 8,0 km/h (2 Bft) S-SO 157 0 min 0,0 UV-I 0 W/m 17,7 km/h (3 Bft)
20.10.2020 03:35 9,2 C 9,2 C 9,3 C 73 % 1013,4 hPa 0,0 l/m 9,7 km/h (2 Bft) S-SO 157 0 min 0,0 UV-I 0 W/m 20,9 km/h (4 Bft)
20.10.2020 03:30 9,2 C 9,2 C 9,3 C 73 % 1013,5 hPa 0,0 l/m 9,7 km/h (2 Bft) S-SO 157 0 min 0,0 UV-I 0 W/m 17,7 km/h (3 Bft)
20.10.2020 03:25 9,2 C 9,2 C 9,3 C 73 % 1013,7 hPa 0,0 l/m 9,7 km/h (2 Bft) S-SO 157 0 min 0,0 UV-I 0 W/m 20,9 km/h (4 Bft)
20.10.2020 03:20 9,3 C 9,2 C 9,3 C 73 % 1013,7 hPa 0,0 l/m 9,7 km/h (2 Bft) S-SO 157 0 min 0,0 UV-I 0 W/m 24,1 km/h (4 Bft)
20.10.2020 03:15 9,3 C 9,2 C 9,3 C 73 % 1013,9 hPa 0,0 l/m 11,3 km/h (2 Bft) S-SO 157 0 min 0,0 UV-I 0 W/m 22,5 km/h (4 Bft)
20.10.2020 03:10 9,2 C 9,2 C 9,2 C 73 % 1014,1 hPa 0,0 l/m 11,3 km/h (2 Bft) S-SO 157 0 min 0,0 UV-I 0 W/m 24,1 km/h (4 Bft)
20.10.2020 03:05 9,2 C 9,1 C 9,2 C 73 % 1014,1 hPa 0,0 l/m 11,3 km/h (2 Bft) S-SO 157 0 min 0,0 UV-I 0 W/m 22,5 km/h (4 Bft)
20.10.2020 03:00 9,1 C 9,1 C 9,1 C 73 % 1014,1 hPa 0,0 l/m 11,3 km/h (2 Bft) S-SO 157 0 min 0,0 UV-I 0 W/m 25,7 km/h (4 Bft)
20.10.2020 02:55 9,1 C 9,1 C 9,1 C 74 % 1014,3 hPa 0,0 l/m 8,0 km/h (2 Bft) S-SO 157 0 min 0,0 UV-I 0 W/m 20,9 km/h (4 Bft)
20.10.2020 02:50 9,1 C 9,1 C 9,1 C 73 % 1014,2 hPa 0,0 l/m 9,7 km/h (2 Bft) S-SO 157 0 min 0,0 UV-I 0 W/m 17,7 km/h (3 Bft)
20.10.2020 02:45 9,1 C 9,1 C 9,1 C 73 % 1014,2 hPa 0,0 l/m 8,0 km/h (2 Bft) S-SO 157 0 min 0,0 UV-I 0 W/m 19,3 km/h (3 Bft)
20.10.2020 02:40 9,1 C 9,1 C 9,1 C 73 % 1014,4 hPa 0,0 l/m 11,3 km/h (2 Bft) S-SO 157 0 min 0,0 UV-I 0 W/m 22,5 km/h (4 Bft)
20.10.2020 02:35 9,1 C 9,0 C 9,1 C 73 % 1014,5 hPa 0,0 l/m 12,9 km/h (3 Bft) S-SO 157 0 min 0,0 UV-I 0 W/m 27,4 km/h (5 Bft)
20.10.2020 02:30 9,0 C 9,0 C 9,1 C 74 % 1014,6 hPa 0,0 l/m 12,9 km/h (3 Bft) S-SO 157 0 min 0,0 UV-I 0 W/m 25,7 km/h (4 Bft)
20.10.2020 02:25 9,0 C 9,0 C 9,1 C 74 % 1014,7 hPa 0,0 l/m 9,7 km/h (2 Bft) S-SO 157 0 min 0,0 UV-I 0 W/m 19,3 km/h (3 Bft)
20.10.2020 02:20 9,0 C 9,0 C 9,1 C 74 % 1014,8 hPa 0,0 l/m 9,7 km/h (2 Bft) S-SO 157 0 min 0,0 UV-I 0 W/m 19,3 km/h (3 Bft)
20.10.2020 02:15 9,0 C 8,9 C 9,0 C 74 % 1014,8 hPa 0,0 l/m 11,3 km/h (2 Bft) S-SO 157 0 min 0,0 UV-I 0 W/m 25,7 km/h (4 Bft)
20.10.2020 02:10 9,0 C 8,9 C 9,0 C 74 % 1014,5 hPa 0,0 l/m 9,7 km/h (2 Bft) S-SO 157 0 min 0,0 UV-I 0 W/m 20,9 km/h (4 Bft)
20.10.2020 02:05 9,0 C 8,9 C 9,0 C 74 % 1014,6 hPa 0,0 l/m 9,7 km/h (2 Bft) S-SO 157 0 min 0,0 UV-I 0 W/m 29,0 km/h (5 Bft)
20.10.2020 02:00 8,9 C 8,9 C 9,0 C 75 % 1014,5 hPa 0,0 l/m 11,3 km/h (2 Bft) S-SO 157 0 min 0,0 UV-I 0 W/m 30,6 km/h (5 Bft)
20.10.2020 01:55 9,0 C 9,0 C 9,1 C 75 % 1014,5 hPa 0,0 l/m 8,0 km/h (2 Bft) S-SO 157 0 min 0,0 UV-I 0 W/m 17,7 km/h (3 Bft)
20.10.2020 01:50 9,1 C 9,0 C 9,1 C 75 % 1014,6 hPa 0,0 l/m 11,3 km/h (2 Bft) S-SO 157 0 min 0,0 UV-I 0 W/m 20,9 km/h (4 Bft)
20.10.2020 01:45 9,1 C 9,0 C 9,1 C 75 % 1014,8 hPa 0,0 l/m 9,7 km/h (2 Bft) S-SO 157 0 min 0,0 UV-I 0 W/m 24,1 km/h (4 Bft)
20.10.2020 01:40 9,0 C 9,0 C 9,1 C 75 % 1014,8 hPa 0,0 l/m 9,7 km/h (2 Bft) S-SO 157 0 min 0,0 UV-I 0 W/m 20,9 km/h (4 Bft)
20.10.2020 01:35 9,0 C 8,9 C 9,0 C 75 % 1014,9 hPa 0,0 l/m 6,4 km/h (2 Bft) S-SO 157 0 min 0,0 UV-I 0 W/m 22,5 km/h (4 Bft)
20.10.2020 01:30 9,0 C 8,9 C 9,0 C 75 % 1015,1 hPa 0,0 l/m 8,0 km/h (2 Bft) S-SO 157 0 min 0,0 UV-I 0 W/m 20,9 km/h (4 Bft)
20.10.2020 01:25 9,0 C 9,0 C 9,1 C 75 % 1015,2 hPa 0,0 l/m 8,0 km/h (2 Bft) SO 135 0 min 0,0 UV-I 0 W/m 16,1 km/h (3 Bft)
20.10.2020 01:20 9,1 C 9,0 C 9,1 C 75 % 1015,3 hPa 0,0 l/m 8,0 km/h (2 Bft) S-SO 157 0 min 0,0 UV-I 0 W/m 20,9 km/h (4 Bft)
20.10.2020 01:15 9,0 C 9,0 C 9,1 C 76 % 1015,4 hPa 0,0 l/m 9,7 km/h (2 Bft) S-SO 157 0 min 0,0 UV-I 0 W/m 17,7 km/h (3 Bft)
20.10.2020 01:10 9,1 C 9,0 C 9,1 C 76 % 1015,3 hPa 0,0 l/m 8,0 km/h (2 Bft) S-SO 157 0 min 0,0 UV-I 0 W/m 17,7 km/h (3 Bft)
20.10.2020 01:05 9,0 C 8,9 C 9,0 C 76 % 1015,3 hPa 0,0 l/m 8,0 km/h (2 Bft) S-SO 157 0 min 0,0 UV-I 0 W/m 20,9 km/h (4 Bft)
20.10.2020 01:00 8,9 C 8,9 C 9,0 C 76 % 1015,4 hPa 0,0 l/m 8,0 km/h (2 Bft) S-SO 157 0 min 0,0 UV-I 0 W/m 19,3 km/h (3 Bft)
20.10.2020 00:55 8,8 C 8,8 C 8,9 C 76 % 1015,4 hPa 0,0 l/m 9,7 km/h (2 Bft) S-SO 157 0 min 0,0 UV-I 0 W/m 25,7 km/h (4 Bft)
20.10.2020 00:50 8,8 C 8,8 C 8,9 C 76 % 1015,3 hPa 0,0 l/m 6,4 km/h (2 Bft) S-SO 157 0 min 0,0 UV-I 0 W/m 24,1 km/h (4 Bft)
20.10.2020 00:45 8,9 C 8,9 C 9,0 C 76 % 1015,4 hPa 0,0 l/m 4,8 km/h (1 Bft) S-SO 157 0 min 0,0 UV-I 0 W/m 14,5 km/h (3 Bft)
20.10.2020 00:40 9,0 C 9,0 C 9,0 C 76 % 1015,6 hPa 0,0 l/m 6,4 km/h (2 Bft) SO 135 0 min 0,0 UV-I 0 W/m 20,9 km/h (4 Bft)
20.10.2020 00:35 9,0 C 9,0 C 9,1 C 76 % 1015,6 hPa 0,0 l/m 8,0 km/h (2 Bft) S-SO 157 0 min 0,0 UV-I 0 W/m 20,9 km/h (4 Bft)
20.10.2020 00:30 9,1 C 9,0 C 9,1 C 76 % 1015,8 hPa 0,0 l/m 6,4 km/h (2 Bft) S-SO 157 0 min 0,0 UV-I 0 W/m 16,1 km/h (3 Bft)
20.10.2020 00:25 9,0 C 8,9 C 9,1 C 76 % 1015,9 hPa 0,0 l/m 9,7 km/h (2 Bft) S-SO 157 0 min 0,0 UV-I 0 W/m 17,7 km/h (3 Bft)
20.10.2020 00:20 8,9 C 8,9 C 9,0 C 76 % 1015,9 hPa 0,0 l/m 9,7 km/h (2 Bft) S-SO 157 0 min 0,0 UV-I 0 W/m 19,3 km/h (3 Bft)
20.10.2020 00:15 8,9 C 8,8 C 8,9 C 76 % 1015,8 hPa 0,0 l/m 8,0 km/h (2 Bft) SO 135 0 min 0,0 UV-I 0 W/m 19,3 km/h (3 Bft)
20.10.2020 00:10 8,9 C 8,8 C 8,9 C 77 % 1015,8 hPa 0,0 l/m 6,4 km/h (2 Bft) S-SO 157 0 min 0,0 UV-I 0 W/m 12,9 km/h (3 Bft)
20.10.2020 00:05 8,8 C 8,8 C 8,9 C 77 % 1016,2 hPa 0,0 l/m 8,0 km/h (2 Bft) SO 135 0 min 0,0 UV-I 0 W/m 19,3 km/h (3 Bft)
20.10.2020 00:00 8,8 C 8,8 C 8,8 C 77 % 1016,3 hPa 0,0 l/m 8,0 km/h (2 Bft) S-SO 157 0 min 0,0 UV-I 0 W/m 17,7 km/h (3 Bft)
_ Min-Zeit 00:00 00:00 00:00 04:45 08:30 - 00:45 - - - - - 00:10
Minimum _ 8,8 C 8,8 C 8,8 C 72 % 1010,1 hPa - 4,8 km/h (1 Bft) - - - - - 12,9 km/h (3 Bft)
_ Max-Zeit 14:55 15:00 14:55 15:20 00:00 00:00 08:45 - - 10:05 10:15 10:15 06:00
Maximum _ 13,1 C 13,1 C 13,1 C 83 % 1016,3 hPa 0,0 l/m 16,1 km/h
S-SO (3 Bft)
- - 5 min 0,7 UV-I 204 W/m 35,4 km/h
S-SO (5 Bft)
Durchschnitt _ 10,5 C 10,4 C 10,5 C 77 % 1012,0 hPa #0,0 l/m 11,3 km/h (2 Bft) S-SO - #20 min. 0,6 UV-I 71 W/m 23,6 km/h (4 Bft)